Location: Eppenbrunn
(49.1158°N, 7.5601°E)
Time: 15:21:28
(UTC+00:00)

IGS 5A - Pass Details

Date: 19 June 2021
Orbit: 583 x 587 km, 97.6° (Epoch: 17 July)

Event Time Altitude Azimuth Distance (km) Brightness Sun altitude
Rises 21:33:23 0° 222° (SW) 2,808 6.7 -12.8°
Reaches altitude 10° 21:37:29 10° 262° (W) 1,917 6.3 -13.1°
Maximum altitude 21:38:18 11° 274° (W) 1,887 6.5 -13.2°
Drops below altitude 10° 21:39:08 10° 285° (WNW) 1,920 6.7 -13.3°
Sets 21:43:17 0° 326° (NNW) 2,830 8.8 -13.6°
